Temperature
9 9 9 9 10 10 9 10 10 12 12 14 14 13 13 14 13 13 14 14 15 15 15 15 15 15 15 15 15 14 14 14 13 12 10 8 6 4 3 1 1 -0 -1 -1
8 9 9 8 9 10 10 10 10 10 11 13 13 12 12 12 12 12 13 14 14 14 14 14 15 14 14 14 14 14 14 14 13 11 10 8 6 4 2 1 0 -0 -1 -1
7 8 8 8 9 10 10 9 9 10 11 11 10 10 11 12 12 12 13 13 13 13 13 13 14 14 14 14 13 13 13 13 12 11 9 8 5 3 2 1 0 -1 -1 -2
5 8 7 11 11 10 10 10 9 10 10 10 10 12 13 13 12 12 12 12 12 12 12 12 13 13 12 12 12 12 12 12 12 10 9 6 3 2 1 0 -0 -1 -1 -2
5 5 7 8 9 9 9 9 10 10 10 11 11 10 12 12 12 11 11 11 11 11 11 11 12 11 11 11 11 11 11 11 10 9 7 5 3 2 1 -0 -0 -1 -1 -2
4 5 6 9 11 11 10 9 11 11 10 10 9 7 9 11 10 10 10 10 10 10 10 11 11 10 10 10 10 10 10 9 8 7 6 5 4 2 0 -1 -1 -1 -2 -2
4 4 6 8 8 10 9 10 12 11 11 10 8 8 10 10 10 10 10 10 9 9 9 10 9 9 9 9 9 8 8 8 7 7 5 4 2 1 -0 -1 -1 -2 -2 -2
3 4 6 8 8 9 10 11 11 11 11 10 9 9 9 9 9 9 9 9 8 8 8 9 9 8 8 8 8 7 7 7 7 6 4 3 1 -0 -1 -2 -2 -2 -2 -2
5 8 9 10 10 11 11 10 10 10 10 9 9 8 8 8 8 8 8 8 8 7 7 8 8 7 7 7 6 6 6 6 6 5 4 2 0 -1 -2 -2 -3 -2 -2 -2
5 6 8 10 10 11 11 10 10 9 9 8 8 7 7 7 7 7 7 7 7 7 6 7 7 6 6 6 5 5 6 5 5 4 2 1 -1 -2 -2 -2 -2 -2 -2 -2
6 7 8 9 9 10 10 9 9 8 8 7 7 6 6 6 6 6 6 6 6 5 5 5 5 5 5 4 4 4 5 5 4 3 1 -0 -1 -2 -2 -2 -1 -2 -2 -2
7 8 7 8 9 8 8 8 7 7 7 6 6 5 5 6 6 6 5 5 5 4 4 4 3 3 3 3 3 3 4 4 3 2 0 -1 -2 -3 -3 -3 -3 -3 -3 -3
8 8 8 8 8 7 7 6 6 6 5 5 5 5 5 5 5 5 5 4 3 3 3 3 2 2 2 2 2 2 3 3 2 1 -1 -2 -3 -3 -4 -4 -4 -4 -4 -3
7 7 6 6 6 6 5 5 5 5 4 4 4 4 4 4 5 5 4 3 3 3 3 2 2 2 1 1 1 2 2 2 1 0 -1 -3 -3 -4 -4 -5 -5 -4 -4 -4
6 5 5 5 5 4 4 4 4 4 4 4 4 4 4 4 4 4 3 3 2 2 2 2 1 1 1 1 1 1 1 1 0 -1 -2 -3 -4 -5 -6 -6 -6 -5 -4 -4
4 4 4 4 4 4 3 3 3 3 3 3 3 3 3 3 3 3 3 2 1 1 2 1 1 1 0 0 0 0 1 0 -0 -1 -2 -4 -5 -6 -6 -7 -7 -6 -5 -4
3 3 3 3 3 3 3 2 2 2 2 2 2 2 2 2 2 3 2 2 1 1 1 1 0 0 -0 -0 -0 -0 -0 -0 -1 -2 -3 -4 -5 -6 -7 -7 -7 -6 -5 -4
4 3 3 3 2 2 2 2 2 2 2 1 1 1 1 1 1 1 1 1 1 2 2 1 -0 -0 -1 -1 -1 -1 -1 -1 -1 -2 -3 -5 -6 -6 -7 -8 -8 -7 -6 -5
3 3 2 2 2 2 2 2 2 1 1 1 1 0 0 1 1 0 0 -0 0 1 1 0 -0 -0 -1 -1 -1 -1 -1 -1 -2 -2 -4 -5 -6 -7 -8 -8 -8 -8 -7 -6
2 2 2 2 1 1 1 1 1 1 1 0 -0 -0 -0 -0 -0 -0 -1 -0 0 0 -0 -1 -1 -1 -1 -1 -1 -1 -1 -2 -2 -2 -4 -5 -7 -7 -8 -8 -8 -8 -7 -6
1 1 1 1 1 1 1 1 0 0 -0 -0 -1 -1 -1 -1 -1 -1 -1 -1 0 -0 -1 -1 -1 -1 -1 -1 -1 -2 -2 -2 -2 -3 -4 -5 -7 -8 -8 -8 -8 -8 -7 -6
1 1 1 1 0 0 0 -0 -0 -1 -1 -1 -1 -1 -1 -1 -1 -2 -1 -1 -1 -1 -1 -1 -1 -1 -1 -2 -2 -2 -2 -2 -2 -3 -4 -5 -7 -8 -8 -8 -8 -8 -7 -6
0 0 0 0 -0 -0 -0 -1 -1 -1 -1 -2 -2 -2 -2 -2 -2 -3 -3 -1 -2 -1 -2 -1 -1 -1 -1 -2 -2 -2 -2 -2 -3 -3 -4 -5 -6 -8 -8 -8 -8 -8 -7 -6
0 0 -0 -0 -1 -1 -1 -1 -1 -2 -2 -2 -2 -2 -2 -3 -3 -2 -3 -3 -2 -2 -2 -1 -1 -1 -1 -1 -2 -2 -2 -3 -3 -4 -4 -6 -7 -8 -8 -8 -8 -8 -7 -6
-0 -1 -1 -1 -1 -2 -2 -2 -2 -2 -2 -2 -2 -2 -2 -3 -4 -3 -3 -3 -2 -2 -2 -1 -1 -1 -1 -1 -2 -2 -2 -3 -4 -4 -5 -6 -7 -8 -8 -8 -8 -8 -7 -6
-1 -1 -2 -2 -2 -2 -2 -3 -3 -3 -3 -4 -4 -3 -3 -3 -4 -4 -3 -3 -2 -2 -2 -1 -1 -1 -1 -1 -2 -2 -3 -4 -4 -5 -6 -6 -7 -8 -8 -8 -8 -8 -7 -6
-2 -2 -2 -2 -2 -2 -3 -3 -4 -4 -4 -4 -5 -5 -4 -4 -4 -4 -4 -3 -3 -2 -2 -2 -1 -1 -1 -2 -2 -3 -3 -4 -5 -6 -6 -7 -7 -8 -8 -8 -8 -7 -7 -6
Wind_Speed
9 11 7 8 12 11 13 14 15 21 22 28 23 17 15 13 12 12 12 12 11 10 9 8 7 7 9 11 11 13 15 18 21 18 17 17 17 16 15 15 15 13 13 12
7 10 9 9 15 20 20 16 16 22 24 21 13 9 10 11 10 10 11 12 12 11 11 10 9 9 9 11 12 13 17 19 17 15 16 17 16 15 15 15 13 13 13 12
7 5 6 10 15 18 10 9 10 14 13 9 11 13 12 11 9 9 11 12 12 12 12 12 11 10 10 11 10 13 16 16 15 15 16 16 16 15 16 15 13 13 13 12
4 1 10 10 6 9 11 13 12 11 11 11 12 12 10 8 5 10 11 12 13 12 12 12 11 10 9 8 9 12 14 15 14 14 15 13 13 15 14 12 13 13 13 13
3 6 11 10 10 7 8 9 7 7 9 9 8 7 6 4 4 9 11 13 13 12 13 12 13 11 9 9 9 11 15 15 13 13 13 14 15 16 14 13 13 13 11 13
5 6 9 10 5 0 1 7 5 3 5 8 7 9 8 10 12 13 13 12 11 11 11 12 13 9 8 10 10 13 14 13 11 13 15 17 17 15 12 12 13 13 12 12
8 9 11 10 5 0 4 7 3 4 8 8 6 8 10 13 14 13 13 13 12 11 11 12 11 8 10 11 13 13 10 9 10 12 14 14 13 12 11 12 12 12 12 11
6 7 11 7 4 6 8 7 8 10 10 11 11 12 12 12 12 12 12 11 11 10 12 13 11 9 11 14 13 11 9 9 10 11 12 12 11 12 12 13 12 12 10 9
11 11 8 5 8 9 9 13 14 12 12 11 12 13 12 10 10 11 11 11 10 10 13 14 11 9 12 14 12 11 9 10 9 10 11 11 12 13 12 12 11 11 10 9
9 13 14 14 13 14 16 18 14 11 11 11 12 11 10 9 9 10 10 11 10 11 14 16 14 12 12 14 12 11 11 9 7 8 9 10 11 12 12 13 13 12 11 10
17 16 14 13 13 14 13 12 12 11 9 7 7 7 7 8 10 10 11 10 10 12 14 16 15 15 14 12 11 11 10 8 7 8 9 10 12 12 13 13 15 14 12 11
24 17 16 17 12 13 14 13 10 8 6 5 4 7 8 9 10 11 12 12 12 13 14 16 15 16 15 12 10 10 9 7 6 7 8 9 9 10 19 18 21 22 17 13
23 18 18 18 14 11 9 7 4 3 4 6 7 7 8 10 10 12 13 13 13 14 15 16 15 16 15 12 10 10 10 8 6 7 8 9 10 11 10 14 21 22 21 19
13 13 15 13 11 7 4 1 1 3 5 6 7 9 10 10 11 13 14 14 14 15 15 15 14 16 14 11 10 10 9 10 9 7 8 9 10 10 9 10 11 11 16 21
10 9 11 9 5 2 1 2 4 6 7 8 9 10 11 12 14 16 16 14 14 14 14 14 14 16 13 11 10 11 9 7 7 7 8 8 9 9 9 10 9 8 6 11
9 7 5 3 2 2 2 4 5 8 9 10 12 13 13 13 15 15 15 13 13 15 15 15 15 15 13 11 11 9 8 12 10 7 7 8 8 9 9 9 10 9 10 10
5 3 2 2 2 3 4 6 7 9 10 12 14 14 14 15 15 15 14 12 12 14 15 14 15 14 12 11 10 8 7 8 12 8 7 8 8 9 9 9 9 9 9 11
3 3 2 2 3 5 8 8 9 10 11 13 14 13 14 15 16 17 16 15 15 15 14 13 11 11 11 10 8 7 7 6 6 6 6 8 8 8 9 9 10 10 7 10
1 1 3 5 6 7 8 10 11 11 12 13 13 14 14 15 15 15 14 14 15 16 12 10 18 15 12 12 12 6 6 7 7 7 6 11 11 9 9 9 9 9 9 9
4 5 7 8 8 8 10 12 12 13 13 12 13 14 15 15 14 14 13 14 13 12 13 16 15 12 11 11 14 7 7 7 7 7 7 8 9 9 9 10 9 9 9 9
7 8 10 10 11 11 12 12 13 14 13 12 14 15 15 16 14 13 13 14 14 12 12 19 13 11 10 12 14 8 7 7 8 8 8 8 9 9 9 10 10 10 9 9
8 10 11 12 13 13 12 11 12 14 14 14 14 14 14 15 14 13 13 12 14 18 14 11 11 15 17 19 9 8 8 8 8 8 8 8 9 9 9 10 10 10 9 9
10 11 12 13 14 14 12 12 13 13 14 14 14 15 15 14 12 12 14 11 11 18 16 13 17 24 26 15 8 8 8 8 8 8 8 9 9 9 9 10 9 9 9 9
13 13 13 12 12 12 14 14 12 12 13 13 14 14 14 12 12 11 11 18 22 24 15 17 25 26 23 10 8 9 8 8 8 8 8 8 8 8 8 9 9 8 8 9
13 13 12 12 12 12 13 13 12 12 13 11 13 13 11 10 12 13 13 15 21 23 15 18 24 23 14 9 9 9 8 7 7 7 8 8 8 8 8 8 9 9 8 9
13 12 11 11 11 12 11 10 10 11 11 12 12 11 10 10 11 12 12 14 16 21 16 13 12 14 9 9 9 9 7 7 6 6 7 8 8 8 8 9 10 9 8 8
11 10 10 10 10 10 10 10 11 12 12 13 15 13 13 12 12 13 14 14 14 13 13 12 11 9 9 8 7 7 5 4 4 5 6 7 7 8 8 9 9 8 8 8
Wind_Direction
255 269 271 247 252 235 219 226 242 264 269 278 289 302 305 307 313 317 321 326 327 322 318 310 286 253 235 232 220 211 213 219 224 222 218 215 210 204 198 195 196 194 196 204
264 257 256 256 251 251 249 244 244 263 273 277 294 304 305 308 314 320 325 325 322 320 317 310 293 269 246 237 223 211 219 226 226 220 217 214 210 202 197 194 191 188 195 201
267 275 309 267 241 240 233 221 216 244 259 307 323 319 312 309 318 321 320 315 312 310 303 297 289 272 257 246 224 216 225 230 226 219 218 215 208 201 198 193 188 190 196 201
281 343 240 246 246 228 235 250 236 248 275 294 290 290 284 275 300 322 318 311 307 302 299 296 290 283 270 254 230 227 233 234 227 219 219 213 206 205 199 192 191 195 199 205
225 253 271 287 272 225 216 270 250 237 269 286 293 310 292 256 294 300 297 293 290 290 291 292 293 291 281 265 245 238 241 239 228 215 213 208 207 205 198 190 192 196 198 203
199 226 254 251 259 67 146 281 270 213 295 306 333 335 301 306 313 307 301 298 298 301 301 300 300 303 288 276 261 252 249 243 227 214 212 211 209 204 196 193 195 194 201 205
220 237 263 261 282 139 209 254 300 298 301 301 285 263 277 296 303 302 304 306 309 311 309 305 308 310 290 283 273 268 259 243 225 214 214 213 207 198 189 191 191 194 202 205
203 221 256 248 169 201 244 289 301 302 300 297 292 291 298 301 300 304 307 309 314 315 312 310 311 305 292 287 283 277 259 241 226 214 208 206 199 194 188 188 190 195 199 207
208 228 250 232 232 260 285 290 291 289 290 292 294 297 302 301 304 306 306 307 310 310 310 311 309 300 293 294 294 286 268 248 230 211 202 196 194 193 190 190 194 197 197 207
254 259 262 268 271 275 276 279 282 279 281 285 288 293 297 299 300 304 302 307 310 314 313 311 311 305 292 293 294 285 272 256 227 208 201 196 196 196 196 197 198 198 197 204
262 272 279 261 259 267 275 279 282 284 285 286 289 292 291 295 297 299 301 302 306 306 304 304 307 305 301 297 296 286 274 257 228 211 201 200 203 206 206 209 204 199 198 195
267 271 274 282 279 281 284 284 284 287 294 298 289 288 293 293 294 296 300 302 304 302 301 303 305 303 302 300 294 284 278 257 229 212 204 202 206 216 223 218 222 218 207 196
262 273 275 285 289 287 282 282 279 280 294 303 300 290 292 294 295 297 300 301 300 300 300 301 302 301 302 300 295 280 269 259 229 214 207 206 207 211 218 222 224 220 211 204
267 278 282 285 287 290 283 301 335 312 297 287 287 294 297 296 297 300 299 298 298 298 299 299 299 299 300 300 297 286 272 261 243 219 209 207 209 211 210 206 205 208 211 209
268 266 271 282 291 314 354 344 329 318 312 309 304 303 302 302 301 299 298 298 297 296 297 300 301 300 302 301 297 290 279 262 243 221 211 208 208 209 210 209 208 199 186 202
283 288 285 288 297 327 338 330 316 307 307 306 307 305 300 295 293 294 294 294 297 301 302 302 299 298 299 299 298 294 281 274 259 230 215 209 207 208 209 208 206 199 196 192
269 275 292 315 317 309 298 290 286 289 294 296 297 298 299 299 299 298 298 296 291 291 291 291 291 292 293 292 291 293 284 277 269 247 216 209 208 210 208 206 206 206 202 192
208 199 194 244 273 285 290 290 287 287 286 286 291 295 296 297 297 297 298 300 300 296 291 283 282 288 288 289 288 283 278 265 251 241 220 211 211 210 208 207 208 207 196 194
56 308 293 290 284 282 281 284 284 282 283 287 290 292 291 289 288 289 294 298 298 297 294 290 302 305 294 292 297 273 267 262 252 243 227 223 220 210 208 207 207 204 195 189
320 313 303 294 287 279 279 281 282 286 287 287 290 292 292 291 291 293 295 292 285 278 283 293 297 291 289 290 296 274 260 254 247 240 228 220 216 208 204 205 204 201 195 192
309 303 298 292 288 282 278 280 284 288 289 287 287 288 289 291 291 291 292 295 291 286 288 295 297 291 292 291 292 271 257 250 242 233 226 220 216 210 203 201 201 199 196 192
296 294 291 289 288 288 285 281 283 287 290 289 287 287 289 291 292 289 279 278 285 292 297 291 290 291 296 297 284 269 258 247 238 228 221 216 211 208 202 197 197 196 192 187
288 286 285 284 285 289 290 287 284 286 286 287 289 289 288 288 289 290 294 289 290 295 299 290 291 296 301 301 284 275 266 253 237 224 217 212 207 203 198 194 192 190 184 181
286 285 282 282 286 291 292 290 286 286 284 285 282 279 281 287 289 281 279 291 297 298 296 291 294 299 305 299 287 281 271 256 237 221 212 205 199 194 190 187 185 182 179 176
279 280 281 284 288 288 286 289 291 289 288 287 283 281 278 274 279 289 291 292 294 298 296 294 296 299 299 288 285 283 277 260 238 213 202 197 191 187 183 180 179 176 174 175
277 280 279 275 277 282 285 287 288 290 292 294 293 291 289 287 284 287 291 290 289 294 295 292 291 292 289 285 283 284 279 270 253 217 194 188 183 178 175 174 170 170 169 170
276 277 280 280 277 274 274 277 282 286 287 289 293 294 293 294 294 294 294 295 295 294 293 292 290 288 287 287 287 284 276 255 225 196 182 178 174 171 168 164 166 163 162 164
Height
1542 1537 1538 1537 1534 1532 1532 1525 1522 1501 1494 1480 1474 1474 1471 1466 1462 1458 1454 1451 1448 1445 1443 1440 1437 1434 1432 1429 1426 1422 1418 1415 1411 1409 1407 1407 1407 1409 1412 1415 1419 1423 1425 1427
1539 1533 1532 1532 1525 1518 1513 1510 1506 1497 1488 1474 1475 1472 1468 1464 1461 1457 1454 1451 1448 1445 1441 1438 1434 1431 1427 1423 1419 1415 1410 1406 1403 1399 1397 1396 1396 1399 1402 1405 1409 1413 1417 1419
1538 1531 1529 1527 1509 1502 1501 1496 1496 1491 1480 1473 1473 1469 1465 1462 1459 1457 1454 1451 1447 1443 1439 1434 1430 1426 1421 1417 1412 1407 1402 1398 1394 1390 1387 1386 1387 1388 1391 1396 1400 1404 1408 1410
1543 1532 1531 1503 1491 1491 1491 1485 1482 1479 1476 1474 1472 1467 1463 1461 1458 1455 1451 1447 1442 1438 1433 1428 1424 1419 1414 1409 1404 1399 1394 1390 1386 1381 1378 1378 1378 1380 1383 1388 1392 1396 1399 1402
1543 1537 1517 1503 1489 1485 1487 1482 1474 1474 1473 1471 1468 1463 1459 1458 1456 1452 1447 1442 1437 1432 1427 1421 1417 1411 1406 1401 1395 1390 1386 1381 1377 1373 1370 1369 1369 1370 1374 1378 1383 1387 1391 1394
1539 1537 1518 1494 1482 1480 1482 1483 1471 1471 1470 1468 1464 1465 1457 1452 1448 1443 1439 1434 1429 1424 1419 1414 1409 1404 1398 1392 1387 1382 1377 1373 1369 1365 1362 1360 1360 1362 1365 1370 1374 1379 1383 1386
1533 1529 1505 1486 1481 1481 1487 1479 1470 1468 1466 1464 1462 1459 1453 1448 1443 1438 1433 1428 1423 1417 1412 1408 1403 1397 1390 1385 1380 1374 1369 1364 1360 1356 1354 1352 1352 1353 1356 1361 1366 1370 1374 1377
1526 1524 1505 1478 1480 1480 1476 1469 1467 1464 1461 1457 1453 1449 1445 1441 1436 1432 1427 1422 1417 1411 1406 1402 1396 1389 1382 1377 1372 1366 1360 1355 1351 1348 1346 1344 1344 1345 1348 1352 1357 1362 1366 1369
1503 1491 1477 1474 1473 1471 1469 1465 1462 1459 1455 1453 1448 1443 1439 1435 1430 1426 1421 1416 1411 1405 1399 1394 1389 1383 1375 1369 1363 1357 1352 1347 1343 1339 1337 1336 1336 1337 1340 1343 1348 1352 1357 1360
1490 1477 1472 1469 1467 1466 1464 1460 1456 1453 1450 1446 1441 1437 1433 1429 1425 1420 1415 1410 1404 1398 1391 1385 1381 1375 1368 1361 1355 1349 1344 1339 1335 1332 1329 1328 1328 1329 1331 1334 1338 1343 1348 1352
1477 1469 1464 1460 1460 1458 1455 1453 1450 1446 1443 1439 1435 1431 1428 1424 1419 1414 1409 1403 1397 1391 1384 1377 1372 1366 1360 1354 1347 1341 1336 1332 1328 1324 1322 1321 1321 1322 1323 1326 1331 1336 1340 1345
1464 1462 1460 1453 1454 1452 1448 1444 1441 1438 1435 1433 1430 1427 1423 1419 1414 1408 1402 1396 1390 1383 1377 1370 1364 1358 1352 1347 1341 1335 1329 1325 1321 1318 1316 1314 1315 1315 1317 1320 1325 1330 1335 1339
1457 1454 1452 1446 1445 1443 1440 1437 1435 1433 1431 1428 1426 1422 1418 1413 1407 1401 1395 1389 1382 1376 1369 1363 1356 1350 1345 1340 1334 1329 1324 1319 1315 1311 1309 1308 1308 1308 1310 1313 1317 1322 1327 1332
1452 1448 1442 1440 1438 1436 1434 1432 1431 1429 1427 1425 1421 1417 1412 1406 1400 1395 1388 1382 1375 1369 1362 1356 1350 1344 1339 1334 1328 1323 1318 1313 1309 1306 1303 1302 1302 1303 1304 1306 1310 1313 1319 1324
1444 1442 1438 1435 1433 1431 1430 1429 1427 1425 1423 1419 1416 1411 1406 1399 1393 1387 1381 1375 1368 1362 1355 1349 1343 1338 1333 1328 1323 1318 1313 1308 1304 1300 1298 1297 1297 1297 1299 1300 1303 1307 1312 1318
1438 1435 1432 1431 1430 1429 1428 1426 1424 1421 1418 1414 1410 1405 1399 1393 1386 1380 1374 1368 1361 1354 1348 1343 1337 1332 1327 1322 1317 1312 1307 1303 1298 1295 1292 1291 1291 1292 1293 1294 1297 1301 1305 1311
1432 1430 1430 1429 1428 1427 1426 1424 1422 1418 1414 1409 1404 1398 1391 1385 1378 1372 1366 1361 1355 1348 1343 1337 1331 1326 1322 1317 1312 1307 1302 1298 1294 1290 1287 1286 1285 1286 1287 1289 1292 1295 1299 1304
1430 1430 1430 1429 1427 1425 1423 1420 1417 1413 1408 1403 1397 1390 1384 1378 1371 1364 1358 1352 1346 1341 1337 1331 1326 1320 1316 1311 1307 1302 1297 1293 1289 1285 1282 1280 1280 1281 1282 1284 1287 1290 1294 1299
1430 1429 1428 1427 1425 1423 1419 1415 1411 1406 1401 1395 1389 1382 1377 1371 1364 1357 1351 1345 1339 1333 1328 1324 1319 1314 1310 1306 1301 1296 1292 1287 1284 1280 1277 1276 1275 1275 1277 1279 1282 1285 1289 1294
1428 1427 1425 1423 1421 1418 1414 1409 1404 1398 1393 1388 1381 1374 1368 1363 1357 1350 1344 1338 1333 1328 1322 1317 1312 1307 1303 1299 1295 1290 1286 1282 1278 1274 1272 1270 1270 1270 1272 1274 1276 1280 1284 1289
1426 1424 1421 1418 1414 1411 1407 1402 1396 1390 1385 1380 1373 1366 1360 1354 1349 1343 1336 1329 1325 1322 1316 1311 1306 1301 1296 1292 1287 1283 1279 1275 1272 1268 1266 1264 1264 1265 1266 1269 1272 1275 1279 1284
1421 1419 1415 1411 1407 1402 1398 1394 1388 1382 1376 1370 1365 1359 1352 1346 1341 1335 1330 1324 1318 1314 1309 1304 1299 1295 1290 1285 1281 1277 1273 1268 1265 1261 1259 1258 1258 1259 1261 1264 1267 1270 1274 1279
1416 1412 1408 1404 1399 1393 1388 1384 1379 1373 1367 1362 1357 1351 1345 1340 1334 1328 1320 1316 1312 1307 1302 1297 1293 1288 1283 1279 1274 1269 1265 1261 1257 1254 1252 1251 1252 1254 1256 1259 1262 1266 1270 1276
1407 1403 1399 1395 1390 1384 1378 1373 1370 1365 1359 1354 1349 1344 1338 1331 1325 1321 1315 1309 1304 1299 1294 1290 1286 1281 1276 1271 1267 1262 1257 1253 1250 1247 1246 1245 1246 1249 1252 1255 1258 1262 1267 1273
1398 1394 1389 1385 1380 1375 1370 1365 1360 1355 1350 1344 1340 1335 1330 1325 1318 1312 1307 1301 1296 1292 1287 1282 1278 1274 1269 1264 1259 1255 1250 1246 1243 1240 1239 1240 1241 1244 1247 1251 1255 1259 1264 1270
1388 1384 1380 1376 1372 1367 1362 1357 1352 1346 1341 1335 1330 1325 1320 1316 1310 1304 1299 1294 1289 1284 1280 1275 1271 1267 1262 1257 1253 1248 1243 1239 1236 1235 1234 1235 1238 1240 1244 1248 1252 1257 1262 1268
1378 1374 1370 1366 1363 1359 1354 1349 1344 1338 1334 1328 1321 1316 1312 1307 1301 1296 1291 1286 1282 1277 1273 1269 1264 1260 1255 1251 1246 1241 1237 1233 1231 1230 1231 1232 1235 1238 1241 1245 1250 1255 1260 1266